Lid_Strength_Index
-0 1 3 6 12 13 15 13 13 11 10 9 8 8 8 8 10 13 2 1 1 0 -0 -0 -1 -1 -1 -1 -1 -1 -1 -1 -1 -2 -1 -1 -1 -1 -1 -1 -1 -2 -2 -2 -2 -2 -2 -2 -2
1 1 6 9 14 16 16 13 13 11 10 9 8 9 8 10 6 5 4 1 1 0 -0 -0 -1 -1 -1 -1 -1 -1 -1 -1 -1 -2 -2 -1 -1 -1 -1 -1 -2 -2 -2 -2 -2 -2 -2 -2 -2
1 1 9 11 15 17 16 13 12 11 10 9 9 9 7 8 5 4 3 1 1 1 -0 -0 -1 -1 -1 -1 -1 -1 -1 -1 -1 -2 -1 -1 -1 -1 -2 -2 -2 -2 -2 -2 -2 -2 -2 -2 -2
4 7 10 14 15 13 13 13 11 12 11 10 10 11 9 5 5 3 2 1 1 1 0 -1 -1 -2 -1 -1 -1 -1 -1 -1 -2 -2 -1 -1 -2 -2 -2 -2 -2 -2 -2 -2 -2 -2 -2 -3 -2
6 10 14 16 16 14 13 11 11 12 12 11 11 11 11 5 3 2 1 1 2 1 0 -0 -1 -1 -1 -1 -1 -1 -1 -2 -2 -1 -2 -2 -2 -2 -2 -2 -2 -2 -2 -2 -2 -2 -2 -2 -2
9 11 15 17 16 13 13 12 12 12 12 11 11 10 10 4 4 2 1 1 1 1 0 -0 -0 -1 -1 -1 -1 -1 -1 -2 -2 -1 -2 -2 -2 -2 -2 -2 -2 -2 -2 -2 -2 -2 -2 -2 -2
10 12 15 16 14 14 12 10 12 12 12 11 10 11 9 5 4 4 1 1 1 1 1 0 -0 -0 -0 -1 -1 -1 -1 -1 -1 -2 -2 -2 -2 -2 -2 -2 -2 -2 -2 -2 -2 -2 -2 -2 -2
8 11 14 14 15 14 11 10 9 10 11 9 8 11 11 7 4 5 4 2 2 1 1 0 0 0 -0 -0 -0 -0 -1 -1 -1 -1 -1 -1 -1 -1 -2 -2 -2 -1 -2 -2 -2 -2 -2 -2 -2
7 13 15 13 13 12 10 10 9 8 9 9 8 9 7 6 5 6 6 5 3 1 1 1 1 1 0 -0 0 -0 -0 -0 -1 -1 -0 -0 0 0 -0 -1 -1 -1 -2 -2 -2 -2 -2 -2 -2
10 13 12 10 11 11 10 10 10 10 10 9 8 7 6 5 6 6 6 6 5 3 2 1 1 2 0 -0 1 0 -0 -0 -0 -0 1 2 2 1 -0 -0 -1 -2 -2 -2 -2 -2 -2 0 3
9 12 10 9 9 8 9 10 9 11 11 10 9 8 7 6 6 6 6 5 5 3 2 1 1 1 1 1 0 0 0 0 1 2 2 3 3 1 1 0 -0 -0 -0 0 -0 0 1 3 3
11 9 8 8 8 9 10 9 10 10 9 8 8 7 6 7 6 6 6 5 4 3 2 1 1 1 1 0 0 0 1 1 2 2 3 3 3 2 2 0 -0 -0 -0 1 1 2 3 3 4
11 10 9 8 8 8 8 9 10 9 8 7 7 7 7 7 6 5 5 4 4 3 2 1 1 1 1 1 0 0 1 1 2 2 3 3 2 2 1 2 0 2 0 1 2 2 3 3 4
10 9 9 8 8 8 9 10 9 8 8 8 7 7 7 7 6 6 5 5 4 3 2 1 1 1 0 2 0 0 0 1 2 2 3 4 2 2 1 1 1 2 1 2 2 3 4 4 4
8 11 10 9 9 9 8 11 11 8 8 8 8 7 7 6 6 5 4 4 4 4 3 2 1 1 1 1 1 0 0 1 2 2 4 4 2 2 1 1 1 1 1 2 3 4 5 6 3
11 12 14 10 8 8 9 14 10 8 9 9 8 8 8 7 6 5 4 4 3 4 3 2 1 1 1 2 3 4 4 1 2 2 4 5 3 2 1 1 1 1 2 2 3 5 6 6 4
13 16 14 12 9 9 11 13 10 9 9 9 9 9 9 7 6 5 4 4 3 3 2 2 1 1 2 3 4 4 4 4 4 2 4 5 4 2 2 1 1 3 2 3 4 5 5 6 5
18 16 14 14 11 10 11 12 9 9 9 10 10 10 9 7 6 5 4 3 3 2 2 2 3 2 3 3 5 4 4 5 5 6 4 5 5 3 2 2 2 3 3 4 4 5 6 5 5
13 13 14 13 11 13 13 13 11 9 10 11 11 10 9 7 6 5 4 3 3 3 2 2 3 5 5 5 6 5 5 5 6 5 6 7 5 4 3 4 4 3 4 4 4 4 5 7 6
12 14 14 13 10 12 12 13 10 10 10 10 10 9 8 7 6 5 4 3 4 3 2 3 3 5 5 5 5 4 4 5 5 5 6 7 7 5 4 5 5 4 4 5 4 5 5 6 5
12 14 13 13 12 11 12 14 12 10 9 9 8 8 8 8 8 5 5 5 3 3 3 3 3 4 4 4 4 4 3 5 6 6 6 6 6 6 5 5 5 4 4 4 4 4 4 6 7
14 10 10 11 14 17 13 20 14 12 11 10 11 11 10 9 8 7 6 4 3 3 2 3 2 3 4 4 4 4 4 6 6 6 5 6 7 7 6 6 5 5 4 4 4 3 4 5 6
11 9 11 12 14 16 15 17 14 12 12 12 12 11 10 10 8 8 7 7 3 3 3 2 3 2 2 3 3 4 3 4 5 5 6 6 7 7 7 6 6 6 5 5 4 4 4 4 5
9 11 12 13 14 19 15 16 16 13 12 12 12 10 10 9 9 8 8 7 6 2 3 3 2 2 2 3 3 3 4 4 4 5 5 6 7 7 7 6 6 6 5 6 5 4 4 4 5
10 14 19 21 20 20 14 16 14 12 12 12 11 10 10 9 10 9 9 9 8 7 3 3 3 3 2 2 3 3 3 3 4 5 5 6 7 7 7 7 6 6 6 6 5 5 4 4 5
12 13 18 23 22 20 14 19 15 11 10 10 10 10 9 10 9 10 9 9 8 7 6 5 3 3 2 3 3 3 3 3 3 4 4 5 6 7 7 7 6 6 7 7 6 6 5 6 6
12 15 11 16 16 19 16 14 11 11 11 11 11 10 11 11 10 10 9 9 8 7 7 5 3 3 2 2 2 3 3 3 4 4 4 5 5 6 7 8 8 8 7 7 8 7 7 7 8
10 10 16 16 21 21 19 17 17 13 12 12 11 12 11 11 11 10 10 9 8 7 7 6 4 3 2 2 2 3 3 4 3 3 4 5 5 5 7 8 9 9 9 8 8 9 9 9 10
12 14 12 13 15 20 21 19 12 13 12 13 12 12 12 12 11 11 11 10 8 7 7 6 5 3 2 2 2 2 3 3 4 4 4 4 4 5 6 7 8 9 9 9 10 10 11 10 12
12 14 15 16 18 16 17 18 11 12 13 14 14 13 13 13 12 12 11 11 9 8 7 6 6 3 3 2 2 2 2 3 4 4 4 3 4 4 6 7 8 9 9 10 10 11 11 12 12